Regional Weather Roundup
Issued by NWS Northern Indiana

Home | Current Version | Previous Version | Text Only | Print | Product List | Glossary On
Versions: 1 2 3 4 5 6 7 8 9 10 11 12 13 14 15 16 17 18 19 20 21 22 23 24 25 26 27 28 29 30 31 32 33 34 35 36 37 38 39 40 41 42 43 44 45 46 47 48 49 50
000
ASUS43 KIWX 190510
RWRIWX

KIWX WEATHER ROUNDUP
NATIONAL WEATHER SERVICE NORTHERN INDIANA
100 AM EDT SUN APR 19 2015

NOTE: "FAIR" INDICATES FEW OR NO CLOUDS BELOW 12,000 FEET WITH NO
SIGNIFICANT WEATHER AND/OR OBSTRUCTIONS TO VISIBILITY.

* THESE STATIONS ARE NOT UNDER NWS QUALITY CONTROL. THEY ALSO MAY NOT
  REPORT WEATHER SUCH AS PRECIPITATION OR FOG.

INZ001>027-190600-
NORTHERN INDIANA

CITY           SKY/WX    TMP DP  RH WIND       PRES   REMARKS
GARY*          CLOUDY    47  38  70 CALM      29.98F
VALPARAISO     CLOUDY    57  19  22 E13       29.99F
MICHIGAN CITY* MOCLDY    59  14  17 E5        30.00F
KNOX*          CLOUDY    59 N/A N/A E13       29.98F
SOUTH BEND     MOCLDY    59  21  23 E18G28    30.02F
GOSHEN         MOCLDY    54  27  35 E13       30.02F
MONTICELLO*    CLOUDY    59  39  48 E12G21    29.96F
LOGANSPORT*    CLOUDY    55  36  47 E15       29.99S
ROCHESTER*     CLOUDY    57  30  35 E12       30.01F
WARSAW*        CLOUDY    54  28  37 E10       30.02F
ANGOLA*        CLEAR     54  25  32 E12       30.05F
FORT WAYNE     MOCLDY    53  35  50 E14       30.03F
HUNTINGTON*    MOCLDY    53  30  41 E8        30.02S
MARION*        MOCLDY    56  36  47 E14       30.00F

$$
INZ028>050-190600-
CENTRAL INDIANA

CITY           SKY/WX    TMP DP  RH WIND       PRES   REMARKS
LAFAYETTE      MOCLDY    60  47  61 NE13      29.94F
KOKOMO*        CLOUDY    55  39  54 E16       29.98F
MUNCIE*        MOCLDY    57  41  55 E10       29.99F
INDIANAPOLIS   CLOUDY    67  46  47 NE12      29.91F

$$
MIZ043>046-050>051-056>058-064>065-071>073-077>080-190600-
SOUTHWEST LOWER MICHIGAN

CITY           SKY/WX    TMP DP  RH WIND       PRES   REMARKS
BATTLE CREEK   PTCLDY    54  22  28 E13       30.07F
BENTON HARBOR  MOCLDY    58  34  40 E15       30.01F
COLDWATER*     PTCLDY    54  18  24 E8        30.06F
HILLSDALE*     MOCLDY    53  22  29 E13       30.07F
HOLLAND        PTCLDY    53  29  39 E14       30.06F
GRAND RAPIDS   PTCLDY    48  31  51 E16       30.09F
KALAMAZOO      PTCLDY    55  23  28 E8        30.06F
STURGIS*       PTCLDY    54  25  32 CALM      30.04F
THREE RIVERS*  FAIR      56  23  28 E8        30.05F

$$
OHZ001>008-015>018-024>025-190600-
NORTHWEST OHIO

CITY           SKY/WX    TMP DP  RH WIND       PRES   REMARKS
WAUSEON*       FAIR      48  34  57 E13G18    30.09R
DEFIANCE       CLOUDY    53  34  48 E12       30.06F
FINDLAY        CLOUDY    53  38  56 E15       30.04F
TOLEDO EXPRESS MOCLDY    49  34  56 E10       30.08F
TOLEDO METCALF MOCLDY    48  37  65 NE10      30.10F
LIMA           MOCLDY    54  38  54 E17       30.03F

$$
AND FOR LAKE MICHIGAN COASTAL AND OPEN LAKE BUOY OBSERVATIONS

STATION/POSITION TEMP    WIND        PRES    VSBY  WAVE
                 AIR SEA DIR/SP/G                  HT/PER
                 (F)     (DEG/KT/KT) (MB)    (MI)  (FT/S)
CALUMET HARBOR    47      40/  5/  6   N/A
MICHIGAN CITY             80/ 16/ 21   N/A
BURNS HARBOR      61     110/ 18/ 26 1015.6S
SAINT JOSEPH      60      90/  2/  6 1016.9R
MICHIGAN CITY     56 46  120/ 14/ 17   N/A           3/ 6

$$
&&



USA.gov is the U.S. government's official web portal to all federal, state and local government web resources and services.